Regional Weather Roundup
Issued by NWS

Home | Current Version | Previous Version | Graphics & Text | Print | Product List | Glossary On
Versions: 1 2 3 4 5 6 7 8 9 10 11 12 13 14 15 16 17 18 19 20 21 22 23 24 25 26 27 28 29 30 31 32 33 34 35 36 37 38 39 40 41 42 43 44 45 46 47 48 49 50
000
ASUS43 KFSD 212102
RWRSD

WEATHER ROUNDUP FOR SOUTH DAKOTA
NATIONAL WEATHER SERVICE SIOUX FALLS SD
300 PM CST FRI NOV 21 2014

NOTE: "FAIR" INDICATES FEW OR NO CLOUDS BELOW 12,000 FEET WITH NO
SIGNIFICANT WEATHER AND/OR OBSTRUCTIONS TO VISIBILITY.


SDZ001>005-009-010-012>017-212200-
NORTHWEST AND NORTH CENTRAL SOUTH DAKOTA

CITY           SKY/WX    TMP DP  RH WIND       PRES   REMARKS
BUFFALO          N/A     51  27  39 W18       29.71S
FAITH            N/A     50  28  42 W10       29.77F
MOBRIDGE       CLOUDY    39  30  70 SE6       29.74S
$$

SDZ012>016-024>037-041>051-057-063-072>074-212200-
SOUTHWEST AND SOUTH CENTRAL SOUTH DAKOTA

CITY           SKY/WX    TMP DP  RH WIND       PRES   REMARKS
RAPID CTY ARPT MOSUNNY   46  30  53 SE5       29.81S
PIERRE         PTSUNNY   34  25  69 SW5       29.80F WCI  30
CUSTER         MOSUNNY   45  19  35 NE10      29.81R
ELLSWORTH AFB    N/A     50  31  46 CALM      29.81S
PHILIP         PTSUNNY   48  30  49 W8        29.82S
PINE RIDGE     PTSUNNY   48  27  44 S3        29.83F
WINNER         FAIR      47  31  53 SW7       29.83S
$$

SDZ004>011-016>023-039-040-212200-
NORTHEAST SOUTH DAKOTA

CITY           SKY/WX    TMP DP  RH WIND       PRES   REMARKS
ABERDEEN       CLOUDY    32  25  75 S14       29.80F WCI  22
WATERTOWN      PTSUNNY   33  26  75 S16G26    29.82F WCI  23
SISSETON         N/A     34  25  69 S8        29.80R WCI  27
$$

SDZ017-020-022-023-036>040-048>070-212200-
SOUTHEAST SOUTH DAKOTA

CITY           SKY/WX    TMP DP  RH WIND       PRES   REMARKS
SIOUX FALLS    CLOUDY    35  26  69 S20       29.90F WCI  24
HURON          PTSUNNY   37  28  70 S13       29.85S
MITCHELL       PTSUNNY   41  31  67 S13       29.87S
YANKTON        PTSUNNY   41  27  56 S15       29.92S
$$

ABBREVIATIONS USED IN REMARKS
   TC - TEMPERATURE IN CELSIUS
  WCI - WIND CHILL INDEX
   HX - HEAT INDEX
  VSB - VISIBILITY



USA.gov is the U.S. government's official web portal to all federal, state and local government web resources and services.